La Corsa dei Santi
Classifica best Uomini al 2010

Roma | 10,500 Km



Classifica best Donne al 2010 | La gara negli anni

Classifica composta da 240 atleti.

N. Pos.
in %
Tot.
Ediz.
Foto Runner Cat. Tempo min/
Km
Edizione
1 0% 2 Oronzini Alessandro SM35 00:35:04 3:20 2009
2 1% 2 Moccia Andrea SM50 00:36:25 3:28 2009
3 1% 1 Parazzoli Carlo Giovanni SM40 00:36:37 3:29 2009
4 2% 2 Leoncini Claudio SM40 00:36:57 3:31 2009
5 2% 2 Brilli Fabrizio SM 00:37:24 3:33 2010
6 2% 1 Capannolo Valerio SM 00:38:08 3:37 2009
7 3% 1 Denguir Mourad SM40 00:38:14 3:38 2010
8 3% 2 Lutri Stefano SM45 00:38:53 3:42 2009
9 4% 2 Farina Ignazio Stefano SM45 00:39:22 3:44 2009
10 4% 1 Zagordi Giuseppe SM50 00:39:55 3:48 2010
11 5% 1 De Napoli Valentino SM50 00:39:58 3:48 2010
12 5% 2 Arrigoni Manuel SM35 00:40:10 3:49 2010
13 5% 1 Diliberto Fabio SM35 00:40:20 3:50 2010
14 6% 1 Zanetti Massimiliano SM40 00:40:53 3:53 2010
15 6% 1 Tortoreto Luca SM40 00:41:22 3:56 2009
16 7% 2 Cherubini Leonardo SM45 00:41:26 3:56 2009
17 7% 1 D'amico - 72 Roberto SM35 00:41:34 3:57 2010
18 8% 1 Di Silvestro Alessandro SM45 00:41:37 3:57 2010
19 8% 1 Bignami Valter SM45 00:41:40 3:58 2010
20 8% 1 Pasqualini Simone SM 00:41:47 3:58 2010
21 9% 1 Gargani Davide Leopoldo SM45 00:41:55 3:59 2010
22 9% 1 Giannini Emanuele SM 00:42:03 4:00 2009
23 10% 1 Salera Marco SM40 00:42:16 4:01 2010
24 10% 2 Latini Roberto SM40 00:42:41 4:03 2009
25 10% 2 Finesi Ferdinando SM40 00:42:46 4:04 2009
26 11% 1 Di Liberto Lorenzo SM40 00:42:46 4:04 2010
27 11% 2 Mansi Marco SM45 00:43:00 4:05 2009
28 12% 1 Casinelli Antonio SM45 00:43:01 4:05 2009
29 12% 1 Salvatori Giuseppe SM35 00:43:13 4:06 2010
30 12% 2 Papa Antonio SM35 00:43:20 4:07 2010
31 13% 2 Borelli Augusto SM45 00:43:27 4:08 2010
32 13% 2 Castellana Leone SM55 00:43:27 4:08 2009
33 14% 1 Ivanov Alexandru SM40 00:43:56 4:11 2009
34 14% 1 Grandin Diego SM60 00:44:12 4:12 2010
35 15% 2 Cacchioni Antonio SM45 00:44:25 4:13 2009
36 15% 2 Cardellini Claudio SM55 00:44:31 4:14 2009
37 15% 1 Verdesca Massimo SM45 00:44:40 4:15 2009
38 16% 1 Sciuto Salvatore Andrea SM40 00:44:49 4:16 2009
39 16% 1 Pierantozzi Fabio SM35 00:44:52 4:16 2009
40 17% 1 Filiputti Claudio SM55 00:45:05 4:17 2009
41 17% 1 Giambra Sandro SM45 00:45:14 4:18 2010
42 18% 1 Penna Roberto SM45 00:45:17 4:18 2009
43 18% 2 Mori Maurizio SM40 00:45:19 4:18 2010
44 18% 1 Carpineto Claudio SM50 00:45:20 4:19 2009
45 19% 1 Monti Massimiliano SM50 00:45:35 4:20 2010
46 19% 1 Filippi Bruno SM55 00:45:37 4:20 2010
47 20% 2 Imperi Pietro Paolo PM 00:45:40 4:20 2009
48 20% 2 Usai Roberto SM45 00:45:50 4:21 2009
49 20% 1 Trinca Riccardo SM 00:45:53 4:22 2010
50 21% 1 Nedelescu Gabriel PM 00:45:56 4:22 2009
51 21% 1 Angrisani Alfonso SM45 00:46:00 4:22 2010
52 22% 1 Cicchinelli Massimo SM35 00:46:02 4:23 2009
53 22% 2 Polidori Marziano SM55 00:46:02 4:23 2010
54 22% 1 Torretti Gian Luca SM40 00:46:06 4:23 2009
55 23% 2 Cavalagli Claudio SM45 00:46:18 4:24 2009
56 23% 2 Ferrante Giancarlo SM45 00:46:19 4:24 2009
57 24% 1 Flumeri Dario SM40 00:46:28 4:25 2010
58 24% 1 Credentino Stefano SM35 00:46:31 4:25 2009
59 25% 1 Del Gaudio Ennio SM50 00:46:37 4:26 2010
60 25% 1 Maurizi Massimo SM50 00:46:40 4:26 2010
61 25% 1 Cignitti Marco Fabio SM40 00:46:41 4:26 2010
62 26% 1 Bonelli Andrea SM40 00:46:45 4:27 2010
63 26% 1 Vetrano Alessio SM40 00:46:56 4:28 2010
64 27% 1 Rumori Andrea SM35 00:46:58 4:28 2010
65 27% 1 Manzo Daniele SM45 00:47:06 4:29 2009
66 28% 2 Galasso Paolo SM45 00:47:14 4:29 2010
67 28% 1 Ferretti Massimo SM45 00:47:16 4:30 2009
68 28% 1 Curatolo Gandolfo SM50 00:47:17 4:30 2009
69 29% 2 De Santis Alessandro Vittorio SM40 00:47:20 4:30 2009
70 29% 1 Cannizzaro Marco SM50 00:47:24 4:30 2010
71 30% 2 Rizzardi Flavio SM40 00:47:24 4:30 2009
72 30% 1 Ciervo Michele SM40 00:47:27 4:31 2009
73 30% 1 Agnello Francesco SM45 00:47:30 4:31 2009
74 31% 1 Pica Carlo Alberto SM45 00:47:31 4:31 2010
75 31% 1 Bortot Bruno SM45 00:47:36 4:32 2010
76 32% 1 Caicedo Burgos Franklin John SM35 00:47:39 4:32 2009
77 32% 2 Viglialoro Giuseppe SM45 00:47:40 4:32 2010
78 32% 1 Pino Gianluca SM40 00:47:41 4:32 2010
79 33% 1 Atleta Sconosciuto 00:47:47 4:33 2010
80 33% 1 De Bonis Andrea SM 00:47:50 4:33 2010
81 34% 1 Pisanti Massimo SM40 00:47:56 4:33 2010
82 34% 2 Toni Fabrizio SM60 00:47:59 4:34 2009
83 35% 1 Manili Domenico SM45 00:48:02 4:34 2010
84 35% 2 Prioreschi Andrea SM35 00:48:08 4:35 2009
85 35% 2 Monti Giuseppe SM50 00:48:08 4:35 2010
86 36% 2 Moscardelli Alessandro SM40 00:48:14 4:35 2010
87 36% 1 Zanolli Alessandro SM40 00:48:16 4:35 2010
88 37% 1 Di Leo Daniele SM40 00:48:21 4:36 2010
89 37% 1 Pelonara Gino SM65 00:48:24 4:36 2010
90 38% 2 Pinto Antonio SM 00:48:25 4:36 2009
91 38% 2 Fantozzi Angelo SM50 00:48:38 4:37 2009
92 38% 2 Lai Adriano SM50 00:48:39 4:38 2010
93 39% 1 Sette Carlo SM45 00:48:43 4:38 2009
94 39% 1 Calio' Franco SM45 00:48:44 4:38 2010
95 40% 1 Arigoni Alessandro SM35 00:48:52 4:39 2010
96 40% 1 Russo Luca SM50 00:48:53 4:39 2010
97 40% 1 Coletta Umberto SM45 00:48:55 4:39 2010
98 41% 2 Battisti Massimo SM65 00:49:08 4:40 2009
99 41% 1 Monte Roberto SM45 00:49:15 4:41 2009
100 42% 1 Caponeri Marco SM35 00:49:19 4:41 2009
101 42% 1 Auletta Marco SM35 00:49:20 4:41 2010
102 42% 1 Zini Diego SM40 00:49:21 4:42 2009
103 43% 1 Giovanale Luigi SM45 00:49:22 4:42 2010
104 43% 2 Biagini Andrea SM40 00:49:24 4:42 2010
105 44% 1 Santoro Claudio SM50 00:49:25 4:42 2009
106 44% 2 Di Iorio Michele Matteo SM55 00:49:28 4:42 2009
107 45% 2 Fiore Paolo SM45 00:49:32 4:43 2010
108 45% 2 Tonti Daniele SM40 00:49:38 4:43 2009
109 45% 1 Minnielli Lorenzo Maria SM50 00:49:39 4:43 2010
110 46% 1 Miele Carlo SM35 00:49:42 4:44 2010
111 46% 1 Colasanti Vladimiro SM 00:49:44 4:44 2010
112 47% 2 Gambini Marco SM40 00:49:45 4:44 2010
113 47% 1 Montefusco Riccardo SM40 00:49:56 4:45 2010
114 48% 2 Cappelli Augusto SM45 00:49:59 4:45 2010
115 48% 1 Dell'Abate Romolo SM50 00:50:00 4:45 2010
116 48% 1 Cisterna Tonino SM50 00:50:01 4:45 2009
117 49% 2 Orlandi Giuseppe SM45 00:50:01 4:45 2010
118 49% 1 Fares Lorenzo SM50 00:50:08 4:46 2009
119 50% 1 Schicchi Antonio SM45 00:50:19 4:47 2009
120 50% 1 Rotondo Gian Marco SM35 00:50:19 4:47 2010
121 50% 1 Di Carlo Maurizio SM40 00:50:22 4:47 2010
122 51% 1 Caputo Antonio SM40 00:50:22 4:47 2010
123 51% 1 Taddei Giancarlo SM50 00:50:23 4:47 2009
124 52% 2 Angelucci Domenico SM55 00:50:25 4:48 2010
125 52% 1 Barone Marco SM35 00:50:33 4:48 2010
126 52% 1 Aureli Mauro SM45 00:50:36 4:49 2009
127 53% 2 Montauti Andrea SM45 00:50:38 4:49 2010
128 53% 1 D'andria Francesconi Marcello PM 00:50:47 4:50 2010
129 54% 1 Cecchini Paolo SM45 00:50:47 4:50 2010
130 54% 2 Mauro Aniello SM40 00:50:50 4:50 2010
131 55% 1 Renzulli Raffaele SM 00:50:55 4:50 2010
132 55% 1 Orlandi Pio SM 00:50:57 4:51 2010
133 55% 1 Del Vecchio Giuseppe SM40 00:50:58 4:51 2010
134 56% 1 Gambucci Fabrizio SM40 00:51:07 4:52 2010
135 56% 1 Rivetti Luigi SM50 00:51:19 4:53 2010
136 57% 2 Sarto Gianluca SM40 00:51:23 4:53 2010
137 57% 1 Bonano Gian Pietro Paolo SM55 00:51:28 4:54 2010
138 58% 1 Bitti Paolo SM40 00:51:33 4:54 2010
139 58% 2 Fedele Paolo SM50 00:51:36 4:54 2010
140 58% 1 Zuppello Valter SM60 00:51:36 4:54 2009
141 59% 2 Gianni Vincenzo SM55 00:51:37 4:54 2009
142 59% 1 Deidda Mauro SM35 00:51:43 4:55 2010
143 60% 2 Saturnino Andrea SM35 00:51:43 4:55 2010
144 60% 1 Giusti Luciano SM55 00:51:43 4:55 2010
145 60% 2 Sanna Luca SM35 00:51:43 4:55 2009
146 61% 2 Iannucci Vittorio SM55 00:51:48 4:56 2009
147 61% 1 Coco Angelo SM60 00:51:50 4:56 2010
148 62% 1 Silvioli Daniele SM45 00:51:51 4:56 2009
149 62% 1 Blasetti Enrico SM40 00:52:09 4:58 2010
150 62% 2 Utzeri Marco SM55 00:52:11 4:58 2009
151 63% 1 Pizzonia Massimo SM45 00:52:15 4:58 2010
152 63% 1 Natalini Claudio SM50 00:52:16 4:58 2009
153 64% 2 Stella Massimo SM50 00:52:21 4:59 2010
154 64% 1 Di Vecchio Daniele SM40 00:52:22 4:59 2010
155 65% 1 Cesareo Gianfranco SM50 00:52:24 4:59 2010
156 65% 1 Fantini Massimiliano SM40 00:52:25 4:59 2009
157 65% 1 Crupi Antonino SM35 00:52:26 4:59 2010
158 66% 1 Scarnati Carlo SM50 00:52:28 4:59 2009
159 66% 2 Romano Riccardo SM35 00:52:48 5:01 2010
160 67% 1 Di Filippo Pietro SM45 00:52:49 5:01 2010
161 67% 1 D'amico Gianluca SM40 00:52:51 5:02 2010
162 68% 1 Passeggeri Massimo SM40 00:52:52 5:02 2010
163 68% 2 Morici Alberto SM50 00:52:54 5:02 2009
164 68% 1 Busetta Antonio SM40 00:53:02 5:03 2010
165 69% 1 Moccia Alessandro SM 00:53:05 5:03 2010
166 69% 1 Masi Carlo SM45 00:53:07 5:03 2009
167 70% 2 Pugliese Sergio SM50 00:53:12 5:04 2010
168 70% 2 Lucchini Paolo SM45 00:53:30 5:05 2010
169 70% 1 Califano Carmine Luca SM35 00:53:36 5:06 2010
170 71% 2 Tripodi Enzo Maria SM40 00:53:37 5:06 2010
171 71% 2 Strabbioli Marco SM45 00:53:41 5:06 2010
172 72% 1 Culini Massimo SM45 00:53:43 5:06 2010
173 72% 1 Claroni Giulio SM45 00:53:55 5:08 2010
174 72% 1 De Stefanis Antonio SM55 00:53:55 5:08 2010
175 73% 1 Nappi Francesco Paolo SM50 00:54:07 5:09 2010
176 73% 1 Costabile Aldo SM60 00:54:10 5:09 2010
177 74% 2 Felici Franco SM55 00:54:15 5:10 2009
178 74% 1 Ciano Andrea SM45 00:54:29 5:11 2009
179 75% 1 Spiezio Nicola SM45 00:54:35 5:11 2009
180 75% 2 Merli Achille SM35 00:54:52 5:13 2010
181 75% 2 Manca Romano SM50 00:55:15 5:15 2009
182 76% 1 Dimitri Antonio SM45 00:55:15 5:15 2009
183 76% 1 Testi Enrico SM55 00:55:20 5:16 2009
184 77% 2 Ferrari Franco SM50 00:55:23 5:16 2009
185 77% 1 Petrini Rossi Luca SM40 00:55:34 5:17 2010
186 78% 1 Canale Emilio SM50 00:55:37 5:17 2009
187 78% 2 D'alo' Giancarlo SM50 00:55:40 5:18 2010
188 78% 1 Alessandroni Alessandro SM35 00:55:48 5:18 2010
189 79% 2 Usai Leo SM45 00:55:51 5:19 2010
190 79% 2 D'Amico Roberto SM50 00:55:52 5:19 2009
191 80% 2 Angelini Fabrizio SM60 00:56:14 5:21 2010
192 80% 1 Azzone Fabrizio SM50 00:56:19 5:21 2009
193 80% 1 Cauli Franco Luigi SM55 00:56:21 5:22 2009
194 81% 1 Fanelli Pietro SM55 00:56:21 5:22 2009
195 81% 1 Tedesco Pietro SM40 00:56:47 5:24 2009
196 82% 1 Balasso Alessandro SM35 00:56:49 5:24 2009
197 82% 1 Di Saverio Roberto SM40 00:56:54 5:25 2010
198 82% 2 Pasquini Uberto SM65 00:57:00 5:25 2009
199 83% 1 Nottoli Michelangelo SM40 00:57:09 5:26 2010
200 83% 1 Cascetti Franco SM65 00:57:16 5:27 2010
201 84% 1 Mari Stefano SM50 00:57:16 5:27 2010
202 84% 1 Mazzola Antonino SM45 00:57:32 5:28 2010
203 85% 1 Cici Sante SM55 00:57:33 5:28 2010
204 85% 1 Sanchini Giuseppe SM35 00:57:44 5:29 2009
205 85% 1 Savi Tommaso SM40 00:57:56 5:31 2009
206 86% 1 Sonnino Settimio SM45 00:57:59 5:31 2010
207 86% 1 Lattanzi Andrea SM60 00:58:05 5:31 2010
208 87% 1 Cavioli Claudio SM55 00:58:17 5:33 2010
209 87% 1 Della Valle Andrea SM55 00:58:24 5:33 2010
210 88% 1 Cecconi Renzo SM55 00:58:36 5:34 2010
211 88% 1 Nistico' Rosario SM45 00:58:36 5:34 2009
212 88% 1 Camilli Bernardino SM55 00:58:41 5:35 2009
213 89% 1 Lombardi Marco SM45 00:59:07 5:37 2010
214 89% 1 Notargiacomo Giorgio SM35 00:59:08 5:37 2009
215 90% 1 Ianni Salvatore SM45 00:59:10 5:38 2010
216 90% 1 Alciator Marco SM 00:59:27 5:39 2010
217 90% 2 Satta Riccardo SM50 00:59:37 5:40 2010
218 91% 1 Greco Giosue' SM45 00:59:40 5:40 2009
219 91% 1 Costa Carbonari Stefano SM40 00:59:40 5:40 2010
220 92% 1 Del Vecchio Cesare SM 01:00:26 5:45 2010
221 92% 1 Carlotto Giorgio SM55 01:00:32 5:45 2010
222 92% 2 Vannucchi Francesco SM70 01:00:37 5:46 2010
223 93% 1 Fiorito Natale Roberto SM40 01:00:40 5:46 2010
224 93% 1 Sciarra Massimo SM45 01:00:58 5:48 2010
225 94% 1 Natali Giuseppe SM40 01:01:01 5:48 2010
226 94% 1 Cappadocia Vincenzo SM60 01:01:16 5:50 2010
227 95% 1 Vasapollo Giuseppe SM40 01:01:35 5:51 2010
228 95% 1 Celli Marco SM45 01:01:42 5:52 2010
229 95% 1 Piccioni Roberto SM60 01:01:49 5:53 2009
230 96% 1 Doldo Vincenzo SM50 01:01:59 5:54 2010
231 96% 1 Masin Osvaldo SM55 01:02:10 5:55 2010
232 97% 1 Cinque Massimo SM60 01:02:12 5:55 2010
233 97% 2 Verduchi Marco SM40 01:03:05 6:00 2009
234 98% 1 Pertile Gilberto SM45 01:03:31 6:02 2010
235 98% 1 Caringella Luigi SM65 01:05:17 6:13 2009
236 98% 1 Mirra Gennaro SM45 01:05:22 6:13 2009
237 99% 2 Barrella Giuseppe SM50 01:05:32 6:14 2009
238 99% 1 Pezzella Alfredo SM40 01:07:21 6:24 2009
239 100% 2 Damore Vincenzo SM60 01:10:27 6:42 2009
240 100% 1 Roscetti Sandro SM60 01:15:08 7:09 2010

Ver: 3.17 | cecadm